Regional Weather Roundup
Issued by NWS Raleigh/Durham, NC

Home | Current Version | Previous Version | Text Only | Print | Product List | Glossary On
Versions: 1 2 3 4 5 6 7 8 9 10 11 12 13 14 15 16 17 18 19 20 21 22 23 24 25 26 27
000
ASUS42 KRAH 300510
RWRRAH
NORTH CAROLINA WEATHER ROUNDUP
NATIONAL WEATHER SERVICE RALEIGH NC
100 AM EDT THU MAR 30 2017

NOTE: "FAIR" INDICATES FEW OR NO CLOUDS BELOW 12,000 FEET WITH NO
SIGNIFICANT WEATHER AND/OR OBSTRUCTIONS TO VISIBILITY.

NCZ001-053-055-056-065-067-300600-
WESTERN NORTH CAROLINA

CITY           SKY/WX    TMP DP  RH WIND       PRES   REMARKS
ASHEVILLE      CLEAR     57  50  77 CALM      30.08S
JEFFERSON      CLEAR     54  46  74 CALM      30.11F
MORGANTON      PTCLDY    56  51  82 CALM      30.11F
HICKORY        PTCLDY    64  50  60 VRB3      30.06R
RUTHERFORDTON  MOCLDY    61  51  69 CALM      30.06F
MOUNT AIRY     MOCLDY    65  53  66 CALM      30.11S
BOONE          CLEAR     46  46 100 CALM      30.12F
$$

NCZ021-022-025-041-071-084-088-300600-
CENTRAL NORTH CAROLINA

CITY           SKY/WX    TMP DP  RH WIND       PRES   REMARKS
CHARLOTTE      PTCLDY    65  53  65 SE14      30.06S
GREENSBORO     CLOUDY    61  54  77 SE6       30.08S
WINSTON-SALEM  PTCLDY    60  51  72 SE6       30.09S
RALEIGH-DURHAM PTCLDY    60  52  74 SE8       30.12R
FORT BRAGG     CLEAR     60  54  80 SE7       30.10S
FAYETTEVILLE   CLEAR     60  54  80 SE10      30.11R
BURLINGTON     CLEAR     58  52  80 CALM      30.09R
LAURINBURG     CLEAR     60  54  80 S9        30.10S
$$

NCZ011-015-027-028-043-044-047-080-103-300600-
NORTHEASTERN NORTH CAROLINA

CITY           SKY/WX    TMP DP  RH WIND       PRES   REMARKS
ROCKY MT-WILSO CLEAR     53  51  93 E3        30.15R
GREENVILLE     CLEAR     52  48  87 CALM      30.17R
WASHINGTON     CLEAR     47  45  93 CALM      30.16S
ELIZABETH CITY CLEAR     48  45  89 E5        30.17F
MANTEO         CLEAR     48  46  93 E8        30.17S
CAPE HATTERAS  CLEAR     53  46  77 E8        30.15S
$$

NCZ078-087-090-091-093-098-101-300600-
SOUTHEASTERN NORTH CAROLINA

CITY           SKY/WX    TMP DP  RH WIND       PRES   REMARKS
LUMBERTON      CLEAR     59  55  87 SE6       30.11R
GOLDSBORO      CLEAR     53  53 100 E7        30.13R
KINSTON        MOCLDY    53  51  92 SE3       30.16R
KENANSVILLE    CLEAR     54  52  94 E3        30.14S
NEW BERN       CLEAR     52  49  89 E5        30.16R
CHERRY POINT   CLEAR     50  47  89 VRB3      30.15S
BEAUFORT       CLEAR     54  49  83 NE6       30.14S
JACKSONVILLE   NOT AVBL
WILMINGTON     CLEAR     58  56  93 E9        30.12F
$$





USA.gov is the U.S. government's official web portal to all federal, state and local government web resources and services.